TimeEDT,TemperatureF,Dew PointF,Humidity,Sea Level PressureIn,VisibilityMPH,Wind Direction,Wind SpeedMPH,Gust SpeedMPH,PrecipitationIn,Events,Conditions,WindDirDegrees,DateUTC
12:53 AM,66.9,64.9,93,30.03,3.0,Calm,Calm,-,N/A,,Clear,0,2012-10-06 04:53:00
1:15 AM,66.2,64.4,94,30.03,1.5,Calm,Calm,-,N/A,,Clear,0,2012-10-06 05:15:00
1:29 AM,66.2,64.4,94,30.03,2.0,Calm,Calm,-,N/A,,Clear,0,2012-10-06 05:29:00
1:37 AM,66.2,64.4,94,30.03,3.0,Calm,Calm,-,N/A,,Clear,0,2012-10-06 05:37:00
1:53 AM,66.0,64.0,93,30.03,6.0,Calm,Calm,-,N/A,,Clear,0,2012-10-06 05:53:00
2:53 AM,66.0,64.0,93,30.01,4.0,Calm,Calm,-,N/A,,Mostly Cloudy,0,2012-10-06 06:53:00
3:53 AM,64.9,63.0,93,30.01,6.0,Calm,Calm,-,N/A,,Scattered Clouds,0,2012-10-06 07:53:00
4:42 AM,64.4,62.6,94,29.99,2.5,Calm,Calm,-,N/A,,Partly Cloudy,0,2012-10-06 08:42:00
4:51 AM,64.4,62.6,94,29.99,1.8,Calm,Calm,-,N/A,,Mostly Cloudy,0,2012-10-06 08:51:00
4:53 AM,64.9,63.0,93,29.99,1.2,Calm,Calm,-,N/A,,Mostly Cloudy,0,2012-10-06 08:53:00
5:04 AM,64.4,62.6,94,29.99,0.5,Calm,Calm,-,N/A,Fog,Fog,0,2012-10-06 09:04:00
5:26 AM,64.4,62.6,94,29.99,1.0,Calm,Calm,-,N/A,,Mist,0,2012-10-06 09:26:00
5:28 AM,62.6,62.6,100,29.99,2.0,Calm,Calm,-,N/A,,Partly Cloudy,0,2012-10-06 09:28:00
5:37 AM,64.4,62.6,94,29.99,5.0,Calm,Calm,-,N/A,,Scattered Clouds,0,2012-10-06 09:37:00
5:53 AM,64.0,62.1,93,29.98,4.0,Calm,Calm,-,N/A,,Partly Cloudy,0,2012-10-06 09:53:00
6:43 AM,64.4,62.6,94,29.99,2.0,Calm,Calm,-,N/A,,Clear,0,2012-10-06 10:43:00
6:53 AM,64.0,62.1,93,29.99,2.0,Calm,Calm,-,N/A,,Clear,0,2012-10-06 10:53:00
6:56 AM,64.4,62.6,94,30.00,1.5,Calm,Calm,-,N/A,,Clear,0,2012-10-06 10:56:00
7:10 AM,62.6,62.6,100,30.00,2.0,Calm,Calm,-,N/A,,Clear,0,2012-10-06 11:10:00
7:20 AM,62.6,60.8,94,30.00,3.0,Calm,Calm,-,N/A,,Clear,0,2012-10-06 11:20:00
7:25 AM,62.6,60.8,94,30.00,1.8,Calm,Calm,-,N/A,,Clear,0,2012-10-06 11:25:00
7:32 AM,62.6,60.8,94,30.00,1.0,Calm,Calm,-,N/A,,Clear,0,2012-10-06 11:32:00
7:46 AM,62.6,60.8,94,30.00,2.0,Calm,Calm,-,N/A,,Clear,0,2012-10-06 11:46:00
7:53 AM,63.0,62.1,97,30.00,2.0,Calm,Calm,-,N/A,,Clear,0,2012-10-06 11:53:00
8:08 AM,64.4,62.6,94,30.00,3.0,Calm,Calm,-,N/A,,Clear,0,2012-10-06 12:08:00
8:53 AM,69.1,64.9,87,30.01,5.0,Calm,Calm,-,N/A,,Clear,0,2012-10-06 12:53:00
9:53 AM,73.9,66.9,79,30.02,10.0,NW,3.5,-,N/A,,Clear,310,2012-10-06 13:53:00
10:53 AM,78.1,66.0,66,30.01,10.0,WNW,8.1,-,N/A,,Clear,290,2012-10-06 14:53:00
11:53 AM,81.0,64.0,56,29.99,10.0,Calm,Calm,-,N/A,,Clear,0,2012-10-06 15:53:00
12:53 PM,84.0,60.1,44,29.96,10.0,NW,6.9,-,N/A,,Clear,320,2012-10-06 16:53:00
1:53 PM,84.9,57.9,40,29.93,10.0,WSW,10.4,16.1,N/A,,Clear,240,2012-10-06 17:53:00
2:53 PM,86.0,59.0,40,29.90,10.0,Variable,3.5,-,N/A,,Clear,0,2012-10-06 18:53:00
3:53 PM,87.1,57.0,36,29.89,10.0,SSW,6.9,-,N/A,,Clear,210,2012-10-06 19:53:00
4:53 PM,87.1,57.9,37,29.88,10.0,West,6.9,-,N/A,,Clear,270,2012-10-06 20:53:00
5:53 PM,84.9,57.9,40,29.88,10.0,WSW,3.5,-,N/A,,Clear,250,2012-10-06 21:53:00
6:53 PM,78.1,64.0,62,29.91,10.0,Calm,Calm,-,N/A,,Clear,0,2012-10-06 22:53:00
7:53 PM,73.0,64.9,76,29.92,9.0,Calm,Calm,-,N/A,,Clear,0,2012-10-06 23:53:00
8:53 PM,71.1,64.9,81,29.94,10.0,Calm,Calm,-,N/A,,Clear,0,2012-10-07 00:53:00
9:53 PM,71.1,64.9,81,29.95,10.0,Calm,Calm,-,N/A,,Clear,0,2012-10-07 01:53:00
10:53 PM,71.1,66.9,87,29.96,10.0,SSW,3.5,-,N/A,,Clear,210,2012-10-07 02:53:00
11:53 PM,70.0,66.9,90,29.95,7.0,Calm,Calm,-,N/A,,Clear,0,2012-10-07 03:53:00